DW9425 Weather Reports


Display with metric or nautical units.
time (UTC)temp
F
wind
direction
speed
MPH
gust
MPH
rain 1hr
in
rain 24hr
in
rain mn
in
humidity
%
barometer
mb
20260901061529 63 232 5.0 9.0 0.00 0.02 0.00 73 1022.7
20260901060025 63 58 3.0 10.0 0.00 0.02 0.00 70 1022.3
20260901054527 63 63 5.0 12.0 0.00 0.02 0.02 70 1022.0
20260901053128 63 61 5.0 14.0 0.00 0.02 0.02 72 1022.0
20260901051521 62 48 4.0 10.0 0.01 0.02 0.02 74 1022.2
20260901050021 62 36 3.0 9.0 0.01 0.02 0.02 78 1022.4
20260901044519 63 254 0.0 0.0 0.01 0.02 0.02 80 1022.6
20260901043116 64 231 0.0 4.0 0.01 0.02 0.02 79 1023.3
20260901041516 64 211 3.0 6.0 0.00 0.01 0.01 72 1023.5
20260901040017 64 76 1.0 2.0 0.00 0.01 0.01 66 1023.1
20260901034510 64 76 1.0 4.0 0.00 0.01 0.01 66 1022.8
20260901033010 64 61 1.0 10.0 0.00 0.01 0.01 68 1022.7
20260901031510 65 52 4.0 9.0 0.00 0.01 0.01 72 1022.8
20260901030009 65 80 6.0 9.0 0.00 0.01 0.01 72 1022.7
20260901024515 64 55 3.0 6.0 0.00 0.01 0.01 74 1022.9
20260901023007 65 123 6.0 11.0 0.00 0.01 0.01 74 1022.7
20260901021507 65 63 3.0 6.0 0.00 0.01 0.01 67 1022.1
20260901020007 65 360 4.0 12.0 0.00 0.01 0.01 68 1022.0
20260901014507 65 355 4.0 13.0 0.00 0.01 0.01 73 1021.7
20260901013004 65 355 3.0 6.0 0.00 0.01 0.01 76 1021.7
20260901011504 65 60 4.0 7.0 0.00 0.01 0.01 74 1021.6
20260901010004 65 106 3.0 11.0 0.00 0.01 0.01 71 1021.7
20260901004509 66 118 7.0 15.0 0.00 0.01 0.01 69 1021.7
20260901003006 66 111 4.0 8.0 0.01 0.01 0.01 72 1022.0
20260901001507 66 113 9.0 15.0 0.01 0.01 0.01 77 1022.0
20260901000007 66 137 6.0 11.0 0.01 0.01 0.01 75 1021.8
20260831234501 67 130 10.0 16.0 0.01 0.01 0.01 72 1021.4
20260831233058 68 161 6.0 20.0 0.00 0.00 0.00 68 1021.2
20260831231600 70 167 8.0 12.0 0.00 0.00 0.00 64 1020.7
20260831230058 71 134 9.0 16.0 0.00 0.00 0.00 58 1020.4
20260831224554 73 122 9.0 19.0 0.00 0.00 0.00 50 1020.8
20260831223053 75 150 13.0 21.0 0.00 0.00 0.00 43 1021.2
20260831221554 81 115 20.0 28.0 0.00 0.00 0.00 32 1020.9
20260831220052 89 201 9.0 14.0 0.00 0.00 0.00 26 1020.4
20260831214620 89 234 6.0 21.0 0.00 0.00 0.00 26 1020.3
20260831213049 87 267 7.0 12.0 0.00 0.00 0.00 27 1020.4
20260831211548 89 259 9.0 17.0 0.00 0.00 0.00 25 1020.5
20260831210045 89 257 7.0 17.0 0.00 0.00 0.00 26 1020.7
20260831204548 89 234 8.0 18.0 0.00 0.00 0.00 26 1020.8
20260831203046 89 163 9.0 16.0 0.00 0.00 0.00 26 1020.8
20260831201543 89 221 12.0 19.0 0.00 0.00 0.00 25 1020.8
20260831200042 89 207 9.0 16.0 0.00 0.00 0.00 24 1020.8
20260831194543 89 176 9.0 16.0 0.00 0.00 0.00 24 1021.1
20260831193036 87 232 9.0 15.0 0.00 0.00 0.00 26 1021.3
20260831191535 85 231 5.0 18.0 0.00 0.00 0.00 27 1021.5
20260831190048 85 219 6.0 11.0 0.00 0.00 0.00 27 1021.7
20260831184532 85 223 4.0 9.0 0.00 0.00 0.00 27 1021.8
20260831183045 85 266 5.0 9.0 0.00 0.00 0.00 27 1021.9
20260831181533 86 285 4.0 9.0 0.00 0.00 0.00 26 1021.9
20260831180030 86 111 2.0 11.0 0.00 0.00 0.00 26 1022.2
20260831174527 85 207 3.0 10.0 0.00 0.00 0.00 27 1022.2
20260831173022 83 210 1.0 12.0 0.00 0.00 0.00 29 1022.3
20260831171519 81 346 2.0 13.0 0.00 0.00 0.00 30 1022.4
20260831170017 79 323 11.0 16.0 0.00 0.00 0.00 31 1022.4
20260831164510 78 19 4.0 14.0 0.00 0.00 0.00 33 1022.6
20260831163019 77 355 9.0 18.0 0.00 0.00 0.00 33 1022.5
20260831161511 76 11 7.0 20.0 0.00 0.00 0.00 35 1022.4
20260831160003 75 68 5.0 15.0 0.00 0.00 0.00 36 1022.5
20260831154612 73 22 5.0 14.0 0.00 0.00 0.00 39 1022.6
20260831153055 71 360 6.0 17.0 0.00 0.00 0.00 43 1022.6
20260831151551 70 5 5.0 15.0 0.00 0.00 0.00 45 1022.8
20260831150048 68 344 9.0 20.0 0.00 0.00 0.00 50 1023.0
20260831144548 66 21 6.0 19.0 0.00 0.00 0.00 53 1023.1
20260831143042 66 13 8.0 17.0 0.00 0.00 0.00 54 1023.1
20260831141541 66 5 11.0 20.0 0.00 0.00 0.00 54 1023.1
20260831140041 66 360 8.0 19.0 0.00 0.00 0.00 53 1023.1
20260831134538 66 344 9.0 17.0 0.00 0.00 0.00 52 1023.1
20260831133037 66 24 12.0 23.0 0.00 0.00 0.00 52 1023.2
20260831131539 65 332 8.0 17.0 0.00 0.00 0.00 53 1023.0
20260831130035 65 360 7.0 16.0 0.00 0.00 0.00 52 1022.8
20260831124523 65 355 8.0 16.0 0.00 0.00 0.00 51 1022.8
20260831123120 65 32 9.0 17.0 0.00 0.00 0.00 50 1022.5
20260831121518 65 5 8.0 14.0 0.00 0.00 0.00 51 1022.2
20260831120014 65 5 7.0 17.0 0.00 0.00 0.00 52 1022.3
20260831114513 66 341 7.0 16.0 0.00 0.00 0.00 51 1022.6
20260831113010 66 305 6.0 12.0 0.00 0.00 0.00 49 1022.6
20260831111514 66 347 7.0 14.0 0.00 0.00 0.00 49 1022.1
20260831110007 66 340 3.0 12.0 0.00 0.00 0.00 49 1022.1
20260831104506 66 348 9.0 13.0 0.00 0.00 0.00 49 1022.0
20260831103004 66 360 4.0 15.0 0.00 0.00 0.00 49 1022.0
20260831101502 66 360 6.0 17.0 0.00 0.00 0.00 50 1021.8
20260831100059 66 348 9.0 18.0 0.00 0.00 0.00 49 1021.7
20260831094600 67 5 7.0 14.0 0.00 0.00 0.00 48 1021.5
20260831093055 67 347 7.0 13.0 0.00 0.00 0.00 48 1021.4
20260831091553 67 13 7.0 13.0 0.00 0.00 0.00 48 1021.5
20260831090059 67 19 8.0 15.0 0.00 0.00 0.00 47 1021.4
20260831084548 68 5 8.0 17.0 0.00 0.00 0.00 47 1021.3
20260831083049 68 5 9.0 16.0 0.00 0.00 0.00 47 1021.5
20260831081545 68 360 5.0 13.0 0.00 0.00 0.00 47 1021.5
20260831080042 68 10 6.0 16.0 0.00 0.00 0.00 47 1021.6
20260831074540 68 360 8.0 17.0 0.00 0.00 0.00 47 1021.5
20260831073036 69 355 4.0 10.0 0.00 0.00 0.00 46 1021.6
20260831070033 69 10 6.0 15.0 0.00 0.00 0.00 44 1021.6
20260831064531 69 360 2.0 15.0 0.00 0.00 0.00 43 1021.7